Weather History for KRTN - August, 2014

Change the Weather History Date:

Saturday, August 9, 2014

  Actual Average (KTAD) Record (KTAD)
Temperature  
Mean Temperature 69 °F 72 °F  
Max Temperature 88 °F 87 °F 98 °F (2011)
Min Temperature 54 °F 58 °F 50 °F (1985)
Degree Days  
Heating Degree Days 0 0  
Month to date heating degree days 0  
Since 1 June heating degree days 42  
Since 1 July heating degree days 3  
Cooling Degree Days 4 7  
Month to date cooling degree days 69  
Year to date cooling degree days 504  
Since 1 June cooling degree days 476  
Growing Degree Days 19 (Base 50)    
Moisture  
Dew Point 47 °F    
Average Humidity 52    
Maximum Humidity 90    
Minimum Humidity 16    
Precipitation  
Precipitation 0.00 in 0.08 in 1.42 in (1997)
Month to date precipitation 0.76  
Year to date precipitation 8.99  
Sea Level Pressure  
Sea Level Pressure 29.95 in    
Wind  
Wind Speed 7 mph (East)    
Max Wind Speed 17 mph    
Max Gust Speed 25 mph    
Visibility 10 miles    
Events      
T = Trace of Precipitation, MM = Missing Value Source: NWS Daily Summary

Daily Weather History Graph

Daily Weather History Graph

Search for Another Location

Airport or City:

Trip Planner

Search our weather history database for the weather conditions in past years. The results will help you decide how hot, cold, wet, or windy it might be!

Date:

Astronomy

Aug. 09, 2014 Rise Set
Actual Time 6:10 AM MDT 7:56 PM MDT
Civil Twilight 5:42 AM MDT 8:23 PM MDT
Nautical Twilight 5:08 AM MDT 8:57 PM MDT
Astronomical Twilight 4:32 AM MDT 9:33 PM MDT
Moon 7:00 PM MDT (8/9) 4:53 AM MDT (8/9)
Length of Visible Light 14h 41m
Length of Day
13h 45m
Waxing Gibbous, 98% of the Moon is Illuminated
Aug 9
Waxing Gibbous
Aug 10
Full
Aug 17
Last Quarter
Aug 25
New
Sep 2
First Quarter

Hourly Weather History & Observations

Time (MDT) Temp. Dew Point Humidity Pressure Visibility Wind Dir Wind Speed Gust Speed Precip Events Conditions
12:53 AM 60.1 °F 53.1 °F 78% 29.95 in 10.0 mi NW 5.8 mph - N/A   Clear
1:53 AM 59.0 °F 52.0 °F 78% 29.94 in 10.0 mi NNW 8.1 mph - N/A   Clear
2:53 AM 59.0 °F 51.1 °F 75% 29.94 in 10.0 mi NW 5.8 mph - N/A   Clear
3:53 AM 57.0 °F 51.1 °F 81% 29.95 in 10.0 mi NW 3.5 mph - N/A   Clear
4:53 AM 55.9 °F 52.0 °F 87% 29.96 in 10.0 mi ENE 5.8 mph - N/A   Clear
5:53 AM 54.0 °F 51.1 °F 90% 29.96 in 10.0 mi North 6.9 mph - N/A   Clear
6:53 AM 54.0 °F 51.1 °F 90% 29.97 in 10.0 mi ENE 5.8 mph - N/A   Clear
7:53 AM 60.1 °F 53.1 °F 78% 29.98 in 10.0 mi East 3.5 mph - N/A   Clear
8:53 AM 64.9 °F 54.0 °F 68% 29.99 in 10.0 mi ESE 5.8 mph - N/A   Clear
9:53 AM 71.1 °F 52.0 °F 51% 29.97 in 10.0 mi Calm Calm - N/A   Clear
10:53 AM 75.9 °F 53.1 °F 45% 29.95 in 10.0 mi SW 5.8 mph - N/A   Clear
11:53 AM 82.0 °F 52.0 °F 35% 29.92 in 10.0 mi South 5.8 mph - N/A   Clear
12:53 PM 84.9 °F 39.0 °F 20% 29.91 in 10.0 mi East 5.8 mph - N/A   Clear
1:53 PM 82.9 °F 37.0 °F 19% 29.92 in 10.0 mi South 8.1 mph - N/A   Partly Cloudy
2:53 PM 84.9 °F 37.9 °F 19% 29.90 in 10.0 mi SSW 3.5 mph - N/A   Clear
3:53 PM 84.9 °F 34.0 °F 16% 29.89 in 10.0 mi East 3.5 mph - N/A   Clear
4:53 PM 82.9 °F 34.0 °F 17% 29.88 in 10.0 mi SSW 4.6 mph - N/A   Clear
5:53 PM 82.9 °F 44.1 °F 25% 29.88 in 10.0 mi SSW 16.1 mph 20.7 mph N/A   Clear
6:53 PM 80.1 °F 46.0 °F 30% 29.92 in 10.0 mi South 16.1 mph 20.7 mph N/A   Clear
7:53 PM 72.0 °F 44.1 °F 37% 29.93 in 10.0 mi South 9.2 mph - N/A   Clear
9:53 PM 66.9 °F 48.0 °F 51% 30.02 in 10.0 mi NNE 17.3 mph - 0.00 in   Partly Cloudy
10:53 PM 66.9 °F 45.0 °F 45% 30.01 in 10.0 mi NNE 17.3 mph 25.3 mph N/A   Clear
11:53 PM 63.0 °F 48.0 °F 58% 30.02 in 10.0 mi NNE 13.8 mph - N/A   Clear